Location: Wingville
(42.9917°N, 90.4915°W)
Time: 11:20:01
(UTC+00:00)

YUBILEINY - Pass Details

Date: 30 June 2022
Orbit: 1478 x 1509 km, 82.5° (Epoch: 08 August)

Event Time Altitude Azimuth Distance (km) Brightness Sun altitude
Rises 08:36:01 0° 359° (N) 4,653 ? -15.3°
Reaches altitude 10° 08:40:01 10° 15° (NNE) 3,663 ? -14.9°
Maximum altitude 08:46:15 21° 61° (ENE) 2,891 ? -14.2°
Drops below altitude 10° 08:52:26 10° 107° (ESE) 3,635 ? -13.5°
Sets 08:56:19 0° 123° (ESE) 4,605 ? -13.1°
